[[{"header":{"parameterUnit":"m.s-1","parameterCategory":1,"la1":30.2991,"la2":30.254,"lo1":-89.0895,"lo2":-89.0444,"dy":0.0017,"dx":0.0017,"nx":28,"ny":28,"refTime":"2023-09-28T21:00:00:Z","depth":0,"parameterNumber":2,"parameterNumberName":"U-component_of_WINDS"},"data":[0,0,0,0,0,0,0,0,0,0,0,0,0,0,0,0,0,0,0,0,0,0,0,0,0,0,0,0,0,0,0,0,0,0,0,0,0,0,0,0,0,0,0,0,0,0,0,0,0,0,0,0,0,0,0,0,0,0,-1.6934,-1.6934,0,-1.6936,-1.6936,-1.6936,-1.6827,-1.6825,-1.6822,-1.6819,-1.6824,-1.6827,-1.683,0,0,0,0,0,0,0,0,0,0,0,0,0,-1.6838,-1.684,-1.6934,-1.6934,-1.6934,-1.6936,-1.6936,-1.6936,-1.6828,-1.6824,-1.6821,-1.6818,-1.6823,-1.6827,-1.683,0,0,0,0,0,0,0,0,0,0,0,0,0,-1.6864,-1.6841,-1.6934,-1.688,-1.6875,-1.6936,-1.6936,-1.6936,-1.6829,-1.6824,-1.682,-1.6816,-1.6822,-1.6826,-1.6831,-1.6944,0,0,-1.6844,-1.6846,0,0,0,0,0,0,0,0,-1.6862,-1.6867,-1.6888,-1.6884,-1.6878,-1.6877,-1.6904,-1.6939,-1.683,-1.6846,-1.6819,-1.6814,-1.6846,-1.6848,-1.6858,-1.6944,-1.6944,-1.6844,-1.6847,-1.6848,-1.685,0,0,0,0,0,0,0,-1.6861,-1.6867,-1.6934,-1.6888,-1.6883,-1.6856,-1.6855,-1.691,-1.687,-1.6845,-1.6837,-1.6838,-1.6842,-1.6854,-1.6857,-1.6944,-1.6844,-1.6848,-1.685,-1.6852,-1.7122,-1.7126,0,0,0,0,0,0,-1.6866,-1.6866,-1.6934,-1.6934,-1.6859,-1.6862,-1.686,-1.6882,-1.6869,-1.6863,-1.6842,-1.6833,-1.6849,-1.6852,-1.6857,-1.6987,-1.6848,-1.6852,-1.6855,-1.7117,-1.7123,-1.7128,0,0,0,0,0,0,-1.6864,-1.6873,-1.6934,-1.6898,-1.6904,-1.6868,-1.6893,-1.6884,-1.6895,-1.6867,-1.686,-1.6861,-1.6845,-1.6851,-1.6922,-1.6986,-1.6854,-1.6858,-1.7112,-1.7119,-1.7125,-1.7251,0,0,0,0,0,0,-1.6862,-1.6873,-1.6915,-1.69,-1.6906,-1.7,-1.6897,-1.6887,-1.6903,-1.6891,-1.6883,-1.6878,-1.6842,-1.6917,-1.6927,-1.699,-1.6862,-1.7106,-1.7115,-1.7123,-1.7241,-1.7261,-1.7278,0,0,0,0,0,-1.6859,-1.6952,-1.6918,-1.6927,-1.6958,-1.7004,-1.7007,-1.6964,-1.6908,-1.6951,-1.6932,-1.6878,-1.6977,-1.6925,-1.6935,-1.7001,-1.7102,-1.7113,-1.7123,-1.7232,-1.7257,-1.7278,0,0,0,0,0,0,-1.6977,-1.6949,-1.6911,-1.7001,-1.7006,-1.6985,-1.7037,-1.6992,-1.7013,-1.7001,-1.6947,-1.6946,-1.7026,-1.702,-1.6962,-1.7108,-1.703,-1.7043,-1.711,-1.7133,-1.7151,-1.7152,-1.6865,0,0,0,0,0,-1.7014,-1.7052,-1.7025,-1.7107,-1.7111,-1.7074,-1.7093,-1.7058,-1.7061,-1.7063,-1.7049,-1.7055,-1.7087,-1.7109,-1.7138,-1.7239,-1.7235,-1.7289,-1.7308,-1.7323,-1.7335,-1.7388,-1.7411,-1.7162,-1.7162,-1.7162,0,0,-1.709,-1.7079,-1.7107,-1.7131,-1.713,-1.7172,-1.7077,-1.7125,-1.7155,-1.707,-1.7136,-1.7127,-1.7129,-1.7216,-1.7254,-1.7214,-1.7403,-1.7336,-1.7349,-1.7353,-1.7401,-1.7424,-1.7445,-1.7169,-1.7168,-1.7167,0,0,-1.7249,-1.7245,-1.7312,-1.7313,-1.7312,-1.7287,-1.7303,-1.7289,-1.7279,-1.7345,-1.7281,-1.7317,-1.7374,-1.7378,-1.7387,-1.7547,-1.7498,-1.7557,-1.7656,-1.7708,-1.7728,-1.7745,-1.7802,-1.7823,-1.7569,-1.757,-1.757,0,-1.7344,-1.7403,-1.7353,-1.7405,-1.7418,-1.7341,-1.7409,-1.7412,-1.7422,-1.7432,-1.7387,-1.7455,-1.7452,-1.7538,-1.7576,-1.7587,-1.7604,-1.7559,-1.7729,-1.7745,-1.7761,-1.7814,-1.7836,-1.7577,-1.7576,-1.7575,-1.7575,0,-1.752,-1.7562,-1.7617,-1.7626,-1.7644,-1.7705,-1.7664,-1.7688,-1.7652,-1.7632,-1.7699,-1.7691,-1.7716,-1.7734,-1.77,-1.7815,-1.779,-1.7738,-1.7658,-1.7792,-1.7842,-1.7862,-1.7587,-1.7585,-1.7583,-1.7581,0,0,-1.7756,-1.7735,-1.7756,-1.7759,-1.7751,-1.7783,-1.784,-1.7862,-1.7885,-1.7893,-1.7939,-1.7988,-1.7939,-1.795,-1.7915,-1.7961,-1.8087,-1.7902,-1.7901,-1.7937,-1.8213,-1.8253,-1.8278,-1.8054,-1.8058,-1.8061,-1.8213,0,-1.791,-1.8004,-1.796,-1.8059,-1.8097,-1.8024,-1.8073,-1.8074,-1.8056,-1.8086,-1.8066,-1.8102,-1.8034,-1.804,-1.8082,-1.8063,-1.8142,-1.8051,-1.8097,-1.8099,-1.8099,-1.8304,-1.8346,-1.8491,-1.8232,-1.8235,-1.8238,0,-1.8104,-1.8119,-1.8222,-1.8206,-1.8221,-1.8265,-1.8282,-1.8311,-1.8311,-1.8295,-1.8306,-1.8261,-1.8315,-1.8235,-1.8309,-1.8249,-1.8264,-1.8258,-1.8262,-1.8266,-1.8177,-1.8313,-1.8536,-1.8558,-1.8268,-1.8265,-1.8263,0,-1.8265,-1.8311,-1.8378,-1.8383,-1.8367,-1.84,-1.8395,-1.839,-1.8406,-1.8421,-1.8431,-1.8453,-1.8465,-1.8483,-1.8445,-1.839,-1.8524,-1.8441,-1.8512,-1.8514,-1.8545,-1.8543,-1.8774,-1.8555,-1.8554,-1.8554,-1.8554,0,-1.8443,-1.8509,-1.845,-1.8492,-1.8563,-1.8512,-1.8584,-1.8571,-1.8567,-1.8605,-1.8543,-1.858,-1.8527,-1.8559,-1.8529,-1.8595,-1.8601,-1.859,-1.8581,-1.8596,-1.8597,-1.8606,-1.8595,-1.856,-1.8558,-1.8557,-1.8556,0,-1.8636,-1.8599,-1.8668,-1.8646,-1.8642,-1.8696,-1.8677,-1.8715,-1.8692,-1.8741,-1.8749,-1.8714,-1.8748,-1.8711,-1.8743,-1.8723,-1.8811,-1.8788,-1.8812,-1.8805,-1.8879,-1.8872,-1.9123,-1.9153,-1.8915,-1.8917,-1.8919,0,-1.8752,-1.88,-1.8783,-1.8804,-1.8802,-1.8836,-1.8851,-1.8802,-1.8821,-1.8823,-1.8861,-1.8889,-1.891,-1.8968,-1.8946,-1.8969,-1.8946,-1.9032,-1.895,-1.8962,-1.8948,-1.8945,-1.895,-1.905,-1.9053,-1.9055,-1.9057,0,-1.8962,-1.8941,-1.8965,-1.8983,-1.9003,-1.9015,-1.9023,-1.9043,-1.8991,-1.9016,-1.9049,-1.9065,-1.9097,-1.9126,-1.9143,-1.9138,-1.909,-1.9083,-1.9101,-1.9116,-1.9128,-1.9122,-1.8858,-1.9078,-1.9076,-1.9074,-1.9073,-1.9072,-1.9119,-1.9159,-1.9153,-1.9181,-1.9181,-1.9189,-1.9223,-1.9204,-1.923,-1.9251,-1.9221,-1.9262,-1.926,-1.9277,-1.9278,-1.9311,-1.9274,-1.93,-1.9306,-1.9314,-1.9325,-1.9122,-1.9314,-1.9313,-1.9312,-1.9312,-1.9311,0,-1.9326,-1.9318,-1.9345,-1.9356,-1.9379,-1.9329,-1.9334,-1.9357,-1.9394,-1.9395,-1.9416,-1.9454,-1.9482,-1.9461,-1.9484,-1.9514,-1.9492,-1.9522,-1.9519,-1.9519,-1.9356,-1.9338,-1.9539,-1.9539,-1.9539,-1.9539,-1.9539,-1.9539,-1.9436,-1.9499,-1.9478,-1.9541,-1.9532,-1.9571,-1.9579,-1.9586,-1.9586,-1.9631,-1.9653,-1.9639,-1.9631,-1.9653,-1.9677,-1.9669,-1.9681,-1.9719,-1.9705,-1.9553,-1.9531,-1.9509,-1.9492,-1.9722,-1.9722,-1.9864,-1.9866,-1.9867]},{"header":{"parameterUnit":"m.s-1","parameterCategory":1,"la1":30.2991,"la2":30.254,"lo1":-89.0895,"lo2":-89.0444,"dy":0.0017,"dx":0.0017,"nx":28,"ny":28,"refTime":"2023-09-28T21:00:00:Z","depth":0,"parameterNumber":3,"parameterNumberName":"V-component_of_WINDS"},"data":[0,0,0,0,0,0,0,0,0,0,0,0,0,0,0,0,0,0,0,0,0,0,0,0,0,0,0,0,0,0,0,0,0,0,0,0,0,0,0,0,0,0,0,0,0,0,0,0,0,0,0,0,0,0,0,0,0,0,-1.3942,-1.3943,0,-1.4015,-1.4016,-1.4016,-1.406,-1.406,-1.406,-1.406,-1.4133,-1.4135,-1.4137,0,0,0,0,0,0,0,0,0,0,0,0,0,-1.3838,-1.384,-1.3942,-1.3943,-1.3944,-1.4015,-1.4016,-1.4017,-1.406,-1.406,-1.406,-1.406,-1.4133,-1.4135,-1.4137,0,0,0,0,0,0,0,0,0,0,0,0,0,-1.3894,-1.384,-1.3942,-1.3974,-1.3977,-1.4014,-1.4016,-1.4017,-1.406,-1.406,-1.406,-1.4061,-1.4132,-1.4135,-1.4137,-1.4147,0,0,-1.4145,-1.4146,0,0,0,0,0,0,0,0,-1.3891,-1.3898,-1.3968,-1.3972,-1.3976,-1.4029,-1.4006,-1.4061,-1.406,-1.4028,-1.406,-1.4061,-1.4098,-1.4103,-1.4116,-1.4151,-1.4154,-1.4145,-1.4147,-1.4148,-1.4149,0,0,0,0,0,0,0,-1.3887,-1.3895,-1.3971,-1.3969,-1.3974,-1.3984,-1.3992,-1.4016,-1.4061,-1.4031,-1.4034,-1.4043,-1.41,-1.4114,-1.4118,-1.4155,-1.4145,-1.4148,-1.4149,-1.415,-1.4201,-1.42,0,0,0,0,0,0,-1.3878,-1.3891,-1.3968,-1.3973,-1.3933,-1.3985,-1.3995,-1.4011,-1.406,-1.4068,-1.4042,-1.4044,-1.4109,-1.4115,-1.4121,-1.4136,-1.4148,-1.4151,-1.4152,-1.4201,-1.4201,-1.42,0,0,0,0,0,0,-1.3876,-1.3885,-1.3965,-1.3933,-1.3944,-1.3987,-1.4005,-1.4013,-1.4026,-1.4069,-1.4077,-1.4048,-1.411,-1.4117,-1.4141,-1.4139,-1.4152,-1.4154,-1.4201,-1.4201,-1.42,-1.4166,0,0,0,0,0,0,-1.3873,-1.3883,-1.3888,-1.3933,-1.3946,-1.3984,-1.4005,-1.4014,-1.4031,-1.4034,-1.4077,-1.4084,-1.411,-1.4136,-1.4143,-1.4143,-1.4156,-1.4202,-1.4201,-1.4201,-1.4167,-1.4164,-1.4162,0,0,0,0,0,-1.3869,-1.3875,-1.3888,-1.3897,-1.3953,-1.3984,-1.3991,-1.4022,-1.4031,-1.4036,-1.4063,-1.4083,-1.4138,-1.4138,-1.4146,-1.4147,-1.4202,-1.4201,-1.4201,-1.4169,-1.4165,-1.4162,0,0,0,0,0,0,-1.3829,-1.3882,-1.3897,-1.3918,-1.3946,-1.3991,-1.3998,-1.4018,-1.4043,-1.4045,-1.4082,-1.4091,-1.4111,-1.4131,-1.413,-1.4159,-1.4172,-1.4173,-1.4145,-1.4142,-1.4139,-1.4134,-1.4158,0,0,0,0,0,-1.3823,-1.3845,-1.3889,-1.3904,-1.3917,-1.3955,-1.397,-1.3991,-1.4022,-1.4034,-1.4063,-1.4091,-1.4115,-1.4129,-1.4154,-1.4171,-1.418,-1.4175,-1.4172,-1.417,-1.417,-1.418,-1.4178,-1.4199,-1.4199,-1.4199,0,0,-1.3811,-1.3842,-1.3853,-1.3897,-1.3921,-1.3942,-1.3965,-1.3986,-1.4002,-1.4037,-1.406,-1.4082,-1.4116,-1.4136,-1.4146,-1.4154,-1.4166,-1.4169,-1.4167,-1.4168,-1.4179,-1.4177,-1.4175,-1.4198,-1.4198,-1.4198,0,0,-1.3798,-1.3825,-1.3839,-1.3863,-1.39,-1.3925,-1.3928,-1.397,-1.3986,-1.4011,-1.4037,-1.4056,-1.4096,-1.4119,-1.4136,-1.4131,-1.415,-1.4138,-1.4124,-1.4133,-1.4131,-1.413,-1.4128,-1.4126,-1.4138,-1.4138,-1.4138,0,-1.3778,-1.3811,-1.3844,-1.3864,-1.3882,-1.3915,-1.393,-1.3951,-1.3993,-1.4004,-1.4013,-1.4064,-1.4089,-1.4114,-1.4113,-1.4126,-1.413,-1.4133,-1.4129,-1.4128,-1.4127,-1.4125,-1.4124,-1.4137,-1.4137,-1.4137,-1.4137,0,-1.3784,-1.3806,-1.3813,-1.3854,-1.3873,-1.3889,-1.3925,-1.394,-1.3959,-1.3983,-1.4007,-1.4038,-1.4069,-1.4077,-1.4096,-1.4104,-1.4108,-1.4122,-1.4136,-1.4123,-1.4122,-1.4121,-1.4134,-1.4135,-1.4135,-1.4136,0,0,-1.3749,-1.3807,-1.3809,-1.3828,-1.387,-1.3888,-1.3906,-1.3936,-1.3948,-1.3976,-1.3991,-1.4025,-1.4038,-1.4057,-1.4079,-1.4087,-1.408,-1.41,-1.4101,-1.4094,-1.409,-1.4079,-1.4078,-1.4093,-1.4093,-1.4093,-1.4087,0,-1.3742,-1.3777,-1.3807,-1.383,-1.3851,-1.3882,-1.3898,-1.3925,-1.3948,-1.3968,-1.3993,-1.4016,-1.4032,-1.4043,-1.4052,-1.4079,-1.408,-1.408,-1.4107,-1.4108,-1.4097,-1.4078,-1.4066,-1.4059,-1.4087,-1.4087,-1.4087,0,-1.3739,-1.3766,-1.3791,-1.3831,-1.3841,-1.3854,-1.3885,-1.3904,-1.3935,-1.3951,-1.3972,-1.3995,-1.4014,-1.4026,-1.4053,-1.4053,-1.4066,-1.408,-1.4081,-1.4084,-1.4096,-1.408,-1.4058,-1.4057,-1.4087,-1.4087,-1.4087,0,-1.371,-1.3753,-1.3773,-1.3788,-1.3835,-1.3844,-1.3864,-1.3895,-1.3912,-1.3938,-1.3948,-1.3976,-1.3991,-1.4012,-1.4042,-1.4048,-1.4065,-1.408,-1.4079,-1.4078,-1.4081,-1.408,-1.406,-1.409,-1.409,-1.409,-1.409,0,-1.37,-1.3714,-1.3761,-1.3773,-1.379,-1.3824,-1.3839,-1.3862,-1.3889,-1.3906,-1.3935,-1.395,-1.3989,-1.4008,-1.4031,-1.405,-1.4057,-1.4069,-1.4075,-1.4067,-1.4065,-1.4075,-1.4076,-1.4089,-1.4089,-1.4089,-1.409,0,-1.367,-1.3703,-1.3727,-1.3769,-1.378,-1.379,-1.3826,-1.3839,-1.3863,-1.3884,-1.3891,-1.3929,-1.3953,-1.3985,-1.4019,-1.4035,-1.405,-1.406,-1.404,-1.4043,-1.404,-1.404,-1.4026,-1.4025,-1.4055,-1.4055,-1.4055,0,-1.3661,-1.3673,-1.3716,-1.373,-1.3749,-1.377,-1.3787,-1.3821,-1.3837,-1.3873,-1.3882,-1.3908,-1.3931,-1.3969,-1.3999,-1.4025,-1.4035,-1.4028,-1.4039,-1.403,-1.4034,-1.4033,-1.4034,-1.4025,-1.4025,-1.4024,-1.4024,0,-1.3641,-1.3656,-1.368,-1.3708,-1.3727,-1.3752,-1.3777,-1.3786,-1.3825,-1.3842,-1.3867,-1.3885,-1.392,-1.3946,-1.3976,-1.3996,-1.4016,-1.402,-1.4021,-1.4012,-1.4,-1.4006,-1.4032,-1.402,-1.4021,-1.4021,-1.4021,-1.4021,-1.3621,-1.3633,-1.3665,-1.369,-1.3712,-1.3735,-1.3749,-1.3775,-1.3797,-1.3828,-1.3847,-1.3871,-1.3902,-1.3944,-1.3963,-1.3982,-1.399,-1.3992,-1.3992,-1.3992,-1.3988,-1.3997,-1.3988,-1.3988,-1.3988,-1.3988,-1.3988,0,-1.3602,-1.3624,-1.3647,-1.3681,-1.37,-1.3719,-1.3747,-1.3762,-1.3783,-1.381,-1.3832,-1.3861,-1.3886,-1.3918,-1.3945,-1.3954,-1.3964,-1.396,-1.3959,-1.3963,-1.398,-1.3976,-1.3951,-1.3951,-1.3951,-1.3951,-1.3951,-1.3951,-1.3594,-1.3614,-1.3633,-1.3665,-1.3687,-1.3711,-1.3726,-1.3747,-1.3768,-1.3799,-1.382,-1.3841,-1.387,-1.3899,-1.3922,-1.3931,-1.3939,-1.3932,-1.3944,-1.3959,-1.3962,-1.3965,-1.3962,-1.3934,-1.3934,-1.3925,-1.3925,-1.3925]}]]